Indianapolis, IN

6:00 AM EST on December 13, 2019 (GMT -0500)
Indianapolis Terry

Weather History for KTYQ - November, 2019

Change the Weather History Date:

Friday, November 22, 2019

  Actual Average (KEYE) Record (KEYE)
Temperature  
Mean Temperature 31 °F -  
Max Temperature 39 °F 46 °F 69 °F (2010)
Min Temperature 23 °F 32 °F 14 °F (2000)
Degree Days  
Heating Degree Days 34    
Moisture  
Dew Point 32 °F    
Average Humidity 92    
Maximum Humidity 100    
Minimum Humidity 72    
Precipitation  
Precipitation 0.02 in - - ()
Sea Level Pressure  
Sea Level Pressure 30.10 in    
Wind  
Wind Speed 8 mph ()    
Max Wind Speed 15 mph    
Max Gust Speed 24 mph    
Visibility 9.9 miles    
Events      
Averages and records for this station are not official NWS values.
T = Trace of Precipitation, MM = Missing Value Source: Averaged Metar Reports

Daily Weather History Graph

Daily Weather History Graph

Search for Another Location

Airport or City:

Astronomy

Nov. 22, 2019 Rise Set
Actual Time 7:37 AM EST 5:23 PM EST
Civil Twilight 7:08 AM EST 5:53 PM EST
Nautical Twilight 6:35 AM EST 6:26 PM EST
Astronomical Twilight 6:02 AM EST 6:58 PM EST
Moon 2:43 AM EST (11/22) 3:24 PM EST (11/22)
Length of Visible Light 10h 45m
Length of Day
9h 46m
Waning Crescent, 20% of the Moon is Illuminated
Nov 22
Waning Crescent
Nov 26
New
Dec 4
First Quarter
Dec 12
Full
Dec 18
Last Quarter

Hourly Weather History & Observations

Time (EST) Temp. Windchill Dew Point Humidity Pressure Visibility Wind Dir Wind Speed Gust Speed Precip Events Conditions
12:15 AM 39.6 °F 32.5 °F 39.6 °F 100% 29.99 in 10.0 mi WNW 11.5 mph 21.9 mph N/A   Overcast
12:35 AM 39.6 °F 33.0 °F 39.6 °F 100% 29.99 in 10.0 mi WNW 10.4 mph - N/A   Overcast
12:55 AM 39.6 °F 34.0 °F 39.6 °F 100% 29.98 in 10.0 mi WNW 8.1 mph - N/A   Overcast
1:15 AM 39.6 °F 33.0 °F 39.6 °F 100% 30.00 in 10.0 mi WNW 10.4 mph 16.1 mph N/A   Overcast
1:55 AM 39.2 °F 32.5 °F 39.2 °F 100% 30.01 in 10.0 mi WNW 10.4 mph 19.6 mph N/A   Overcast
2:15 AM 38.8 °F 32.6 °F 38.8 °F 100% 30.01 in 10.0 mi WNW 9.2 mph 18.4 mph N/A   Overcast
2:35 AM 38.5 °F 31.1 °F 38.5 °F 100% 30.03 in 10.0 mi NW 11.5 mph 17.3 mph N/A   Overcast
2:55 AM 38.5 °F 32.1 °F 38.5 °F 100% 30.02 in 10.0 mi NW 9.2 mph - N/A   Overcast
3:15 AM 38.5 °F 32.1 °F 38.5 °F 100% 30.01 in 10.0 mi NW 9.2 mph 18.4 mph N/A   Overcast
3:35 AM 38.3 °F 30.5 °F 38.3 °F 100% 30.01 in 10.0 mi NW 12.7 mph 19.6 mph N/A   Overcast
3:55 AM 37.9 °F 29.2 °F 37.9 °F 100% 30.03 in 10.0 mi NNW 15.0 mph 19.6 mph N/A   Overcast
4:15 AM 37.9 °F 29.6 °F 37.9 °F 100% 30.04 in 10.0 mi NW 13.8 mph - N/A   Overcast
4:55 AM 37.4 °F 29.8 °F 37.0 °F 99% 30.04 in 10.0 mi NNW 11.5 mph - N/A   Overcast
5:15 AM 37.0 °F 30.4 °F 36.5 °F 98% 30.05 in 10.0 mi NW 9.2 mph 17.3 mph N/A   Overcast
5:35 AM 37.0 °F 30.4 °F 36.9 °F 99% 30.06 in 10.0 mi NNW 9.2 mph - N/A   Overcast
5:55 AM 36.7 °F 29.9 °F 36.7 °F 100% 30.07 in 10.0 mi NW 9.2 mph - N/A   Overcast
6:15 AM 36.7 °F 31.2 °F 36.7 °F 100% 30.08 in 10.0 mi NW 6.9 mph - N/A   Overcast
6:35 AM 36.5 °F 30.3 °F 36.5 °F 100% 30.07 in 10.0 mi NNW 8.1 mph - N/A   Overcast
6:55 AM 36.5 °F 29.2 °F 36.5 °F 100% 30.08 in 10.0 mi NW 10.4 mph - N/A   Overcast
7:15 AM 36.1 °F 29.9 °F 36.1 °F 100% 30.08 in 10.0 mi NNW 8.1 mph - N/A   Overcast
7:35 AM 36.1 °F 29.9 °F 36.1 °F 100% 30.09 in 10.0 mi NW 8.1 mph - N/A   Overcast
7:55 AM 36.0 °F 29.6 °F 36.0 °F 100% 30.10 in 10.0 mi NNW 8.1 mph - N/A   Overcast
8:15 AM 35.6 °F 28.6 °F 35.2 °F 99% 30.12 in 10.0 mi North 9.2 mph 18.4 mph N/A   Overcast
8:35 AM 34.7 °F 25.9 °F 33.4 °F 95% 30.14 in 10.0 mi North 12.7 mph 24.2 mph N/A   Overcast
8:55 AM 34.2 °F 26.2 °F 32.0 °F 92% 30.15 in 10.0 mi North 10.4 mph - N/A   Overcast
9:10 AM 34.2 °F 26.8 °F 32.0 °F 92% 30.15 in 10.0 mi NNW 9.2 mph - N/A   Overcast
9:35 AM 34.7 °F 29.6 °F 31.5 °F 88% 30.16 in 10.0 mi North 5.8 mph - N/A   Overcast
9:55 AM 34.5 °F 27.3 °F 31.6 °F 89% 30.16 in 10.0 mi NNW 9.2 mph - N/A   Overcast
10:15 AM 34.7 °F 28.1 °F 32.0 °F 90% 30.16 in 10.0 mi NNW 8.1 mph - N/A   Overcast
10:35 AM 34.9 °F 29.9 °F 31.6 °F 88% 30.17 in 10.0 mi North 5.8 mph - N/A   Overcast
10:55 AM 34.9 °F 28.3 °F 30.4 °F 84% 30.17 in 10.0 mi North 8.1 mph - N/A   Overcast
11:15 AM 35.1 °F 28.6 °F 30.6 °F 84% 30.16 in 10.0 mi North 8.1 mph - N/A   Overcast
11:35 AM 37.4 °F 30.3 °F 31.6 °F 80% 30.16 in 10.0 mi North 10.4 mph - N/A   Overcast
11:55 AM 36.3 °F 30.1 °F 30.6 °F 80% 30.16 in 10.0 mi North 8.1 mph 16.1 mph N/A   Overcast
12:15 PM 36.9 °F 30.7 °F 30.9 °F 79% 30.15 in 10.0 mi North 8.1 mph - N/A   Mostly Cloudy
12:35 PM 38.5 °F 32.1 °F 31.5 °F 76% 30.15 in 10.0 mi North 9.2 mph - N/A   Mostly Cloudy
12:55 PM 37.8 °F 31.8 °F 30.9 °F 76% 30.15 in 10.0 mi NNE 8.1 mph - N/A   Mostly Cloudy
1:15 PM 37.9 °F 30.9 °F 30.9 °F 76% 30.14 in 10.0 mi NNW 10.4 mph - N/A   Overcast
1:35 PM 39.4 °F 32.3 °F 31.3 °F 73% 30.14 in 10.0 mi NNW 11.5 mph - N/A   Mostly Cloudy
1:55 PM 38.7 °F 32.4 °F 30.7 °F 73% 30.14 in 10.0 mi NNW 9.2 mph - N/A   Mostly Cloudy
2:15 PM 37.8 °F 31.3 °F 29.5 °F 72% 30.13 in 10.0 mi NNW 9.2 mph - N/A   Scattered Clouds
2:35 PM 39.2 °F 33.0 °F 30.7 °F 72% 30.14 in 10.0 mi NNE 9.2 mph - N/A   Scattered Clouds
2:55 PM 37.9 °F 32.7 °F 30.4 °F 74% 30.13 in 10.0 mi North 6.9 mph - N/A   Scattered Clouds
3:15 PM 38.3 °F 31.9 °F 30.9 °F 75% 30.11 in 10.0 mi North 9.2 mph - N/A   Scattered Clouds
3:35 PM 38.5 °F 32.1 °F 30.2 °F 72% 30.12 in 10.0 mi North 9.2 mph - N/A   Scattered Clouds
3:55 PM 38.3 °F 31.4 °F 30.9 °F 75% 30.11 in 10.0 mi North 10.4 mph - N/A   Clear
4:15 PM 37.9 °F 32.1 °F 30.9 °F 76% 30.11 in 10.0 mi NNE 8.1 mph - N/A   Clear
4:35 PM 37.6 °F 31.6 °F 30.7 °F 76% 30.12 in 10.0 mi NE 8.1 mph - N/A   Clear
4:55 PM 36.9 °F 33.1 °F 31.6 °F 81% 30.12 in 10.0 mi NE 4.6 mph - N/A   Clear
5:15 PM 35.1 °F 31.0 °F 31.1 °F 85% 30.13 in 10.0 mi NNE 4.6 mph - N/A   Clear
5:35 PM 33.4 °F - 30.4 °F 89% 30.14 in 10.0 mi Calm Calm - N/A   Clear
5:55 PM 34.0 °F 31.0 °F 30.7 °F 88% 30.13 in 10.0 mi NNE 3.5 mph - N/A   Clear
6:15 PM 31.1 °F - 30.6 °F 98% 30.14 in 10.0 mi Calm Calm - N/A   Clear
6:35 PM 32.0 °F 28.7 °F 30.9 °F 96% 30.13 in 10.0 mi NNE 3.5 mph - N/A   Clear
6:55 PM 29.3 °F 23.2 °F 29.3 °F 100% 30.13 in 10.0 mi NNE 5.8 mph - N/A   Clear
7:15 PM 30.7 °F 26.0 °F 30.4 °F 99% 30.12 in 10.0 mi NE 4.6 mph - N/A   Clear
7:35 PM 29.3 °F 24.3 °F 29.3 °F 100% 30.12 in 10.0 mi NE 4.6 mph - N/A   Clear
7:55 PM 28.9 °F 23.9 °F 28.9 °F 100% 30.12 in 10.0 mi NE 4.6 mph - N/A   Clear
8:15 PM 27.1 °F 20.7 °F 27.1 °F 100% 30.11 in 10.0 mi NE 5.8 mph - N/A   Clear
8:35 PM 27.7 °F 22.4 °F 27.7 °F 100% 30.11 in 10.0 mi NE 4.6 mph - N/A   Clear
8:55 PM 26.8 °F 22.8 °F 26.8 °F 100% 30.11 in 10.0 mi ENE 3.5 mph - N/A   Clear
9:15 PM 26.4 °F - 26.4 °F 100% 30.11 in 10.0 mi Calm Calm - N/A   Clear
9:35 PM 26.8 °F - 26.8 °F 100% 30.11 in 10.0 mi Calm Calm - N/A   Clear
9:55 PM 25.9 °F - 25.9 °F 100% 30.11 in 10.0 mi Calm Calm - N/A   Clear
10:15 PM 23.2 °F - 23.2 °F 100% 30.11 in 10.0 mi Calm Calm - N/A   Clear
10:35 PM 23.5 °F - 23.5 °F 100% 30.10 in 7.0 mi Calm Calm - N/A   Clear
10:55 PM 23.2 °F - 23.2 °F 100% 30.09 in 7.0 mi Calm Calm - N/A   Clear
11:15 PM 25.7 °F 21.5 °F 25.7 °F 100% 30.08 in 10.0 mi East 3.5 mph - N/A   Clear
11:35 PM 25.0 °F - 25.0 °F 100% 30.07 in 10.0 mi Calm Calm - N/A   Clear
11:55 PM 23.9 °F 19.5 °F 23.9 °F 100% 30.06 in 10.0 mi NE 3.5 mph - N/A   Clear